PDT,Max TemperatureF,Mean TemperatureF,Min TemperatureF,Max Dew PointF,MeanDew PointF,Min DewpointF,Max Humidity, Mean Humidity, Min Humidity, Max Sea Level PressureIn, Mean Sea Level PressureIn, Min Sea Level PressureIn, Max VisibilityMiles, Mean VisibilityMiles, Min VisibilityMiles, Max Wind SpeedMPH, Mean Wind SpeedMPH, Max Gust SpeedMPH,PrecipitationIn, CloudCover, Events, WindDirDegrees
2013-3-1,61,48,36,46,42,36,97,69,51,30.35,30.32,30.27,15,15,15,18,9,,0.00,7,,228
2013-3-2,54,46,41,43,42,39,92,80,66,30.18,30.13,30.04,15,15,15,5,3,,0.00,8,,49
2013-3-3,53,46,35,20,18,15,54,34,22,30.22,30.15,30.13,15,15,15,23,19,32,0.00,0,,276
2013-3-4,51,38,24,24,21,17,72,51,27,30.30,30.22,30.04,15,15,15,10,8,,0.00,3,,351
2013-3-5,45,38,32,36,26,21,96,61,47,30.02,29.94,29.83,15,15,15,15,10,,0.01,8,Rain,320
2013-3-6,41,38,34,39,36,34,99,94,76,29.87,29.70,29.63,15,14,10,15,10,,0.18,8,Rain,286
2013-3-7,54,45,36,36,31,22,80,60,30,30.05,30.00,29.90,15,15,15,10,7,,0.00,3,,238
2013-3-8,54,44,34,37,33,31,92,70,42,30.09,30.06,30.04,15,15,15,12,7,,0.00,1,,326
2013-3-9,55,42,29,34,31,28,91,60,34,30.37,30.35,30.30,15,15,15,7,4,,0.00,1,,92
2013-3-10,51,41,31,34,32,27,84,69,49,30.41,30.35,30.29,15,15,15,7,4,,0.00,6,,76
2013-3-11,57,47,38,35,31,24,82,58,29,30.35,30.29,30.19,15,15,15,8,6,,0.00,8,,290
2013-3-12,62,50,39,43,36,30,79,60,42,30.17,30.09,30.05,15,15,15,18,8,24,0.00,8,Rain,262
2013-3-13,65,54,43,44,42,40,86,63,44,30.16,30.11,30.08,15,15,15,18,10,,0.00,8,,13
2013-3-14,67,56,45,47,39,22,85,60,19,30.09,30.03,29.96,15,15,15,22,7,32,0.00,8,,272
2013-3-15,64,52,40,41,36,32,77,53,31,30.16,30.11,30.07,15,15,15,12,6,,0.00,7,,271
2013-3-16,57,48,39,42,38,35,85,63,50,30.00,29.97,29.91,15,15,15,18,7,,0.00,8,,242
2013-3-17,55,44,33,24,20,17,59,41,24,30.11,30.06,29.99,15,15,15,24,16,30,0.00,3,,266
2013-3-18,59,44,30,31,22,18,89,45,21,30.21,30.10,30.04,15,15,15,28,13,33,0.00,3,,265
2013-3-19,51,38,24,36,24,19,88,58,31,30.25,30.13,29.79,15,15,15,12,7,,0.00,7,Rain,304
2013-3-20,61,48,37,47,35,25,98,71,30,29.91,29.65,29.53,15,15,15,32,12,52,0.04,5,Rain,210
2013-3-21,50,40,30,29,23,18,64,49,32,30.11,30.06,29.92,15,15,15,20,11,,0.00,4,,275
2013-3-22,48,40,32,21,18,15,55,41,26,30.21,30.18,30.09,15,15,15,18,13,28,0.00,4,,279
2013-3-23,48,36,26,22,20,18,72,51,31,30.39,30.38,30.36,15,15,15,5,4,,0.00,7,,206
2013-3-24,53,37,25,30,23,20,83,56,35,30.36,30.31,30.18,15,15,15,10,6,,0.00,5,,353
2013-3-25,57,44,33,25,22,20,61,43,27,30.18,30.10,29.98,15,15,15,12,9,,0.00,6,,309
2013-3-26,61,47,39,29,25,24,56,43,30,30.02,29.99,29.97,15,15,15,13,10,,0.00,7,,306
2013-3-27,,,,,,,,,,,,,,,,,,,,,,
2013-3-28,,,,,,,,,,,,,,,,,,,,,,
2013-3-29,,,,,,,,,,,,,,,,,,,,,,
2013-3-30,,,,,,,,,,,,,,,,,,,,,,
2013-3-31,,,,,,,,,,,,,,,,,,,,,,